Regional Weather Roundup
Issued by NWS

Home | Current Version | Previous Version | Graphics & Text | Print | Product List | Glossary On
Versions: 1 2 3 4 5 6 7 8 9 10 11 12 13 14 15 16 17 18 19 20 21 22 23 24 25 26 27
000
ASUS45 KBOU 200506
RWRCO

WEATHER ROUNDUP FOR COLORADO
NATIONAL WEATHER SERVICE DENVER/BOULDER CO
1100 PM MDT SAT APR 19 2014

NOTE: "FAIR" INDICATES FEW OR NO CLOUDS BELOW 12000 FEET WITH NO
SIGNIFICANT WEATHER AND/OR OBSTRUCTIONS TO VISIBILITY.

COZ001>005-013-030-031-200600-
...NORTHWEST COLORADO...

CITY           SKY/WX    TMP DP  RH WIND       PRES   REMARKS
CRAIG          PTCLDY    42  37  82 W5        30.12S
HAYDEN         PTCLDY    45  36  70 E7        30.15S
MEEKER         PTCLDY    45  39  79 E6        30.15S
MOUNT WERNER   PTCLDY    37  30  75 S9        30.29S
STEAMBOAT SPGS PTCLDY    44  32  63 CALM      30.14S
WALDEN         PTCLDY    36  32  87 SE5       30.18S
$$

COZ006>008-011-200600-
...WEST CENTRAL VALLEYS...

CITY           SKY/WX    TMP DP  RH WIND       PRES   REMARKS
GRAND JUNCTION PTCLDY    50  44  80 CALM      30.07S
MONTROSE       PTCLDY    48  43  82 E8        30.13S
EAGLE          CLOUDY    50  39  66 E3        30.16S
RIFLE          PTCLDY    50  38  63 NE6       30.10S
DELTA          MOCLDY    55  42  62 N3        30.10S
NUCLA            N/A     46  39  76 SE7       30.15F
$$

COZ017>023-064>068-200600-
...SOUTHWEST COLORADO...

CITY           SKY/WX    TMP DP  RH WIND       PRES   REMARKS
DURANGO        CLOUDY    49  36  61 NW3       30.11S
CORTEZ         CLEAR     46  35  65 NE6       30.11R
PAGOSA SPRINGS CLOUDY    43  33  67 CALM      30.16S
TELLURIDE      CLOUDY    39  34  81 SE5       30.23F
WOLF CREEK PAS MOCLDY    30  28  93 SW14      30.32F WCI  20
$$

COZ009-010-012-014-032>034-037-058>063-200600-
...CENTRAL COLORADO...

CITY           SKY/WX    TMP DP  RH WIND       PRES   REMARKS
ASPEN          CLOUDY    43  33  68 S7        30.17S
BUENA VISTA    CLOUDY    46  37  70 W3        30.20S
COPPER MTN     MOCLDY    34  30  86 SW6       30.33F WCI  29
BERTHOUD PASS  CLOUDY    27  18  69 W13       30.35F WCI  16
COTTONWOOD PAS CLOUDY    41  36  81 CALM      30.27S
GUNNISON       MOCLDY    46  30  53 W6        30.21F
KREMMLING      CLOUDY    43  36  75 S3        30.19F
LEADVILLE      MOCLDY    33  32  96 E6        30.25F WCI  28
SALIDA         CLOUDY    49  38  66 CALM      30.25S
SUNLIGHT       MOCLDY    34  32  93 CALM      30.31S
WILKERSON PASS SNOW      32  32 100 S3        30.33S VSB 1/2
$$

COZ069>075-200600-
...SAN LUIS VALLEY/SANGRE DE CRISTO MOUNTAINS...

CITY           SKY/WX    TMP DP  RH WIND       PRES   REMARKS
ALAMOSA        CLOUDY    47  37  68 E7        30.11F
LA VETA PASS   CLOUDY    37  32  81 E9G16     30.25F
SAGUACHE       CLOUDY    48  36  61 N20       30.17S
$$

COZ035-036-038>040-200600-
...NORTHERN COLORADO FRONT RANGE...

CITY           SKY/WX    TMP DP  RH WIND       PRES   REMARKS
DENVER INTL AP CLOUDY    52  46  80 NW10      30.11F
DMNS CITY PARK   N/A     53  44  74 SW3       30.11S
AURORA         MOCLDY    50  46  87 W5        30.12F
FRONT RANGE AP NOT AVBL
ERIE MUNI ARPT CLOUDY    52  47  83 S5        30.10F
BOULDER MUN AP CLOUDY    50  46  87 CALM      30.09F
CENTENNIAL     CLOUDY    49  45  86 S3        30.13S
BROOMFIELD     NOT AVBL
FORT COLLINS   MOCLDY    52  45  76 S15       30.09F
LONGMONT       DRIZZLE   53  48  83 SW6       30.10F
$$

COZ041-046-047-076>085-087-088-200600-
...PIKES PEAK/PALMER DIVIDE AND SOUTHERN FOOTHILLS...

CITY           SKY/WX    TMP DP  RH WIND       PRES   REMARKS
COLO. SPRINGS  CLOUDY    52  42  69 NW12      30.13S
A. F. ACADEMY  CLOUDY    47  43  85 N5        30.15S
ELLICOTT       NOT AVBL
FALCON         CLOUDY    47  40  76 N12       30.15F
FORT CARSON    CLOUDY    52  43  72 NW10      30.11S
LIMON          CLOUDY    45  38  76 N8        30.09F
MONUMENT HILL  MOCLDY    39  37  93 W7        30.16S
TRINIDAD       LGT RAIN  54  42  64 W6        30.05R
$$

COZ042>045-048>051-090-091-200600-
...NORTHEAST COLORADO...

CITY           SKY/WX    TMP DP  RH WIND       PRES   REMARKS
GREELEY ARPT   CLOUDY    54  45  71 SW13      30.07F
AKRON          PTCLDY    49  38  65 CALM      30.08R
BURLINGTON     PTCLDY    50  44  80 NE9       30.02F
WRAY           PTCLDY    53  43  69 E6        30.03F
STERLING       PTCLDY    46  41  81 S5        30.06R
HOLYOKE        MOCLDY    46  36  66 S3        30.04R
FORT MORGAN    MOCLDY    54  36  49 CALM      30.09R
$$

COZ086-089-092>099-200600-
...SOUTHEAST COLORADO...

CITY           SKY/WX    TMP DP  RH WIND       PRES   REMARKS
PUEBLO         CLOUDY    60  38  43 N13       30.05R
LA JUNTA       CLOUDY    60  46  59 NE13      29.95R
LAMAR          CLOUDY    60  43  53 S16       29.93S
SPRINGFIELD      N/A     56  44  64 S12       30.01S
$$



USA.gov is the U.S. government's official web portal to all federal, state and local government web resources and services.